{"data":{"norad_id":64774,"epoch":"2026-05-25T00:21:57.523104Z","epoch_age_seconds":73602,"freshness":"FRESH","line1":"1 64774U 25147V   26145.01524911  .00028756  00000+0  97905-3 0  9998","line2":"2 64774  53.1604 248.4980 0001535  90.0774 270.0402 15.30207269 50369","mean_motion":15.30207269,"eccentricity":0.0001535,"inclination_deg":53.1604,"raan_deg":248.498,"arg_perigee_deg":90.0774,"mean_anomaly_deg":270.0402,"bstar":0.00097905,"rev_number":5036,"period_min":94.104898674351,"perigee_km":474.14137937037,"apogee_km":476.2453517926,"semimajor_km":6853.3303655815,"source":"CELESTRAK","updated_at":"2026-05-25T13:38:20.558667Z"}}